Home > Weather > Damascus > Past weeks

Flag for Syria Weather for the Past 2 Weeks in Damascus, Syria

Now
43 °F

Sunny.


Feels Like: 43 °F
Forecast: 32 / 71 °F
Wind: No wind

Location: Damascus Int. Airport

Current Time: Feb 14, 2016 at 9:07:21 AM

Latest Report: Feb 14, 2016 at 8:00 AM


Visibility: 10 mi

Pressure: 30.18 "Hg (27.74 "Hg at 689m altitude)

Humidity: 71%

Dew point: 34 °F

Location of DamascusLocation

Historic Weather in Damascus — Graph

°F

Damascus Temperature Yesterday

Maximum temperature yesterday: 68 °F (at 4:00 PM)
Minimum temperature yesterday: 34 °F (at 7:00 AM)
Average temperature yesterday: 50 °F

High & Low Weather Summary for the Past Weeks

 TemperatureHumidityPressure
High68 °F (Feb 13, 4:00 PM)100% (Feb 2, 3:00 AM)30.42 "Hg (Feb 2, 3:00 AM)
Low25 °F (Feb 1, 7:00 AM)0% (Feb 4, 10:00 PM)29.83 "Hg (Feb 6, 2:00 PM)
Average46 °F61%30.18 "Hg
* Reported Jan 30 8:00 AM — Feb 14 8:00 AM, Damascus, Weather by CustomWeather, © 2016

Note: Actual official high and low records may vary slightly from our data, if they occured in-between our weather recording intervals... More about our weather records

Advertising

Damascus Weather History for the Previous 24 Hours

 ConditionsComfort  
Time TempWeatherWind HumidityBarometerVisibility
8:00 AM
Sun, Feb 14
43 °FSunny.No wind71%30.18 "Hg10 mi
7:00 AM36 °FSunny.No wind75%30.15 "Hg10 mi
6:00 AM37 °FClear.2 mph70%30.15 "Hg10 mi
5:00 AM39 °FClear.No wind65%30.12 "Hg10 mi
4:00 AM37 °FClear.No wind70%30.12 "Hg10 mi
3:00 AM37 °FClear.No wind70%30.12 "Hg10 mi
2:00 AM43 °FClear.5 mph61%30.12 "Hg10 mi
1:00 AM43 °FClear.2 mph61%30.12 "Hg10 mi
12:00 AM45 °FClear.2 mph57%30.15 "Hg10 mi
11:00 PM
Sat, Feb 13
46 °FClear.No wind53%30.12 "Hg10 mi
10:00 PM46 °FClear.No wind57%30.12 "Hg10 mi
9:00 PM50 °FPassing clouds.No wind50%30.12 "HgN/A
8:00 PM52 °FPassing clouds.2 mph44%30.12 "HgN/A
7:00 PM57 °FPassing clouds.2 mph41%30.12 "HgN/A
6:00 PM61 °FPassing clouds.5 mph34%30.09 "HgN/A
5:00 PM64 °FScattered clouds.5 mph28%30.09 "HgN/A
4:00 PM68 °FSunny.5 mph24%30.09 "Hg10 mi
3:00 PM66 °FSunny.7 mph26%30.12 "Hg10 mi
2:00 PM64 °FSunny.5 mph28%30.12 "Hg10 mi
1:00 PM64 °FSunny.7 mph30%30.12 "Hg10 mi
12:00 PM63 °FSunny.7 mph32%30.15 "Hg10 mi
11:00 AM61 °FSunny.5 mph34%30.18 "Hg10 mi
10:00 AM57 °FSunny.5 mph41%30.21 "Hg10 mi
9:00 AM46 °FSunny.7 mph53%30.21 "Hg10 mi
Weather by CustomWeather, © 2016

See weather overviewHow to use our weather pages